DW2199 Weather Reports


time (UTC)temp
C
wind
direction
speed
KPH
gust
KPH
rain 1hr
cm
rain 24hr
cm
rain mn
cm
humidity
%
barometer
mb
20260504081524 8 4 0.0 3.2 0.00 0.00 0.00 77 1008.2
20260504044645 6 218 0.0 1.6 0.00 0.00 0.00 80 1008.9
20260504043047 6 218 0.0 0.0 0.00 0.00 0.00 78 1009.0
20260504041534 5 218 0.0 0.0 0.00 0.00 0.00 75 1009.0
20260504040034 5 218 0.0 0.0 0.00 0.00 0.00 74 1009.0
20260504034530 5 218 0.0 0.0 0.00 0.00 0.00 73 1009.1
20260504033031 5 218 0.0 1.6 0.00 0.00 0.00 73 1009.1
20260504031529 5 218 0.0 0.0 0.00 0.00 0.00 73 1009.0
20260504030029 5 218 0.0 0.0 0.00 0.00 0.00 73 1009.1
20260504024528 4 218 0.0 0.0 0.00 0.00 0.00 72 1009.2
20260504023028 4 218 0.0 0.0 0.00 0.00 0.00 72 1009.1
20260504021527 4 218 0.0 0.0 0.00 0.00 0.00 71 1009.0
20260504020015 4 218 0.0 1.6 0.00 0.00 0.00 70 1009.1
20260504014511 5 219 0.0 1.6 0.00 0.00 0.00 69 1009.1
20260504013049 5 218 0.0 1.6 0.00 0.00 0.00 68 1009.1
20260504011547 5 218 0.0 0.0 0.00 0.00 0.00 66 1009.0
20260504010025 6 218 0.0 1.6 0.00 0.00 0.00 62 1008.8
20260504004523 6 218 0.0 1.6 0.00 0.00 0.00 58 1008.8
20260504003006 7 218 0.0 0.0 0.00 0.00 0.00 54 1008.7
20260504001502 8 218 0.0 1.6 0.00 0.00 0.00 53 1008.4
20260504000104 9 218 0.0 3.2 0.00 0.00 0.00 44 1008.3
20260503234628 10 210 0.0 6.4 0.00 0.00 0.00 36 1008.2
20260503233100 10 354 0.0 4.8 0.00 0.00 0.00 35 1008.0
20260503231559 11 18 0.0 3.2 0.00 0.00 0.00 33 1007.8
20260503230059 11 204 0.0 4.8 0.00 0.00 0.00 41 1007.5
20260503224557 12 345 0.0 6.4 0.00 0.00 0.00 31 1007.3
20260503223047 12 162 0.0 6.4 0.00 0.00 0.00 33 1007.1
20260503221556 12 196 0.0 3.2 0.00 0.00 0.00 34 1007.1
20260503220045 12 200 0.0 3.2 0.00 0.00 0.00 34 1007.1
20260503214544 12 159 0.0 8.0 0.00 0.00 0.00 34 1007.1
20260503213044 12 194 0.0 3.2 0.00 0.00 0.00 34 1007.3
20260503211542 13 191 0.0 4.8 0.00 0.00 0.00 33 1007.2
20260503210040 14 204 0.0 4.8 0.00 0.00 0.00 32 1007.5
20260503204542 15 197 0.0 3.2 0.00 0.00 0.00 31 1007.5
20260503203026 15 348 0.0 8.0 0.00 0.00 0.00 31 1007.7
20260503201523 15 1 4.8 12.9 0.00 0.00 0.00 32 1007.7
20260503200021 12 173 0.0 8.0 0.00 0.00 0.00 36 1007.8
20260503194521 12 167 0.0 9.7 0.00 0.00 0.00 36 1008.0
20260503193017 13 129 0.0 4.8 0.00 0.00 0.00 35 1008.1
20260503191518 13 72 3.2 12.9 0.00 0.00 0.00 34 1008.4
20260503190017 13 263 0.0 12.9 0.00 0.00 0.00 38 1008.4
20260503184516 13 188 0.0 11.3 0.00 0.00 0.00 37 1008.5
20260503183057 13 99 1.6 6.4 0.00 0.00 0.00 37 1008.7
20260503181552 11 186 0.0 8.0 0.00 0.00 0.00 44 1008.8
20260503180059 11 5 0.0 4.8 0.00 0.00 0.00 40 1008.8
20260503174551 11 328 1.6 6.4 0.00 0.00 0.00 42 1009.0
20260503173048 11 198 0.0 4.8 0.00 0.00 0.00 42 1009.1
20260503171550 10 333 0.0 8.0 0.00 0.00 0.00 44 1009.2